Regional Weather Roundup
Issued by NWS

Home | Current Version | Previous Version | Text Only | Print | Product List | Glossary On
Versions: 1 2 3 4 5 6 7 8 9 10 11 12 13 14 15 16 17 18 19 20 21 22 23 24 25 26 27 28 29 30 31 32 33 34 35 36 37 38 39 40 41 42 43 44 45 46 47 48 49 50
734
ASUS44 KFWD 210101
RWRTX
NORTH TEXAS HOURLY WEATHER ROUNDUP
NATIONAL WEATHER SERVICE FORT WORTH TX
700 PM CST FRI JAN 20 2017

NOTE: "FAIR" INDICATES FEW OR NO CLOUDS BELOW 12,000 FEET WITH NO
SIGNIFICANT WEATHER AND/OR OBSTRUCTIONS TO VISIBILITY.

TXZ118-119-210200-
DALLAS/FORT WORTH METROPLEX

CITY           SKY/WX    TMP DP  RH WIND       PRES   REMARKS
DFW AIRPORT    PTCLDY    62  38  40 S10       29.60R
DALLAS LOVE    PTCLDY    65  40  39 S7        29.61R
FTW MEACHAM    CLEAR     66  35  31 S5        29.61R
DAL-EXECUTIVE  PTCLDY    64  43  46 S6        29.62R
FTW-ALLIANCE   PTCLDY    61  36  39 SW3       29.61R
FTW-NAS-JRB    PTCLDY    64  37  36 SW8       29.62R
FTW-SPINKS     CLEAR     63  37  39 S6        29.63R
ARLINGTON      CLEAR     65  39  38 S6        29.62R
ADDISON        CLEAR     68  39  34 S9        29.62R
MESQUITE       CLEAR     59  43  55 S5        29.63R
LANCASTER      PTCLDY    62  44  51 S6        29.64R
$$

TXZ091>094-102>105-117-120-121-131>134-210200-
NORTH CENTRAL TEXAS

CITY           SKY/WX    TMP DP  RH WIND       PRES   REMARKS
SHRMAN/DENISON PTCLDY    58  43  55 S10       29.60S
GAINESVILLE    CLEAR     60  37  42 SW7       29.62R
BOWIE          CLEAR     63  34  34 SW5       29.61R
BRIDGEPORT     CLEAR     62  37  38 SW5       29.63R
DECATUR        CLEAR     64  32  30 SW6       29.62R
DENTON         CLEAR     60  39  45 S7        29.61R
MCKINNEY       CLEAR     61  43  51 S12       29.61R
BONHAM         CLEAR     61  43  51 S10       29.61R
ROCKWALL       PTCLDY    63  43  47 S7        29.63R
TERRELL        CLEAR     60  46  59 S7        29.64R
WAXAHACHIE     PTCLDY    61  46  57 S9        29.65R
CLEBURNE       CLEAR     64  36  34 S3        29.65S
GRANBURY       CLEAR     60  36  40 SE3       29.65R
$$

TXZ083>090-098>101-113>116-127>130-139>142-154-155-210200-
WESTERN NORTH TEXAS

CITY           SKY/WX    TMP DP  RH WIND       PRES   REMARKS
WICHITA FALLS  CLEAR     60  35  39 SW10      29.57R
WF-KICKAPOO    CLEAR     63  37  36 SW9       29.60R
VERNON         CLEAR     56  32  39 SW6       29.58R
ABILENE        PTCLDY    57  35  43 CALM      29.65R
ABILENE-DYESS  PTCLDY    53  38  57 W6        29.64R
CISCO          CLEAR     55  32  41 SW8       29.65R
RANGER         CLEAR     61  34  36 SW6       29.65R
MINERAL WELLS  CLEAR     62  32  32 S9        29.61R
STEPHENVILLE   CLEAR     63  32  31 CALM      29.67R
COMANCHE       CLEAR     64  35  34 S3        29.66R
BROWNWOOD      CLEAR     57  41  54 CALM      29.65S
COLEMAN        CLEAR     61  32  33 SW5       29.66R
$$

TXZ143>147-156>162-174-175-210200-
CENTRAL TEXAS

CITY           SKY/WX    TMP DP  RH WIND       PRES   REMARKS
WACO           PTCLDY    64  49  57 S12       29.66R
WACO-TSTC      CLEAR     64  46  52 S6        29.67R
WACO-MCGREGOR  PTCLDY    62  51  67 S8        29.67R
HILLSBORO      PTCLDY    61  48  62 S7        29.65S
CORSICANA      MOCLDY    62  47  57 S8        29.68
MEXIA          CLEAR     62  49  61 S3        29.67R
HEARNE         MOCLDY    65  56  71 CALM      29.70R
CAMERON        PTCLDY    65  49  54 E3        29.68R
TEMPLE         PTCLDY    63  51  65 S9        29.68R
KILLEEN        CLEAR     60  43  53 S5        29.66R
KILLEEN-SKYLRK PTCLDY    64  51  62 SE12      29.67S
FORT HOOD      PTCLDY    62  50  63 SE9       29.64R
HAMILTON       CLEAR     62  36  37 S6        29.66S
LAMPASAS       CLEAR     62  39  43 CALM      29.66S
$$

TXZ095>097-106>112-122>126-135>138-148>153-164>167-210200-
EAST TEXAS

CITY           SKY/WX    TMP DP  RH WIND       PRES   REMARKS
PARIS          CLEAR     57  39  51 S9        29.63R
SULPHUR SPRNGS CLEAR     64  42  44 S7        29.66R
MOUNT PLEASANT CLEAR     63  46  53 S8        29.66R
GILMER         CLOUDY    63  51  64 S5        29.66R THUNDER
MINEOLA        CLEAR     64  46  52 S6        29.65R
TYLER          CLEAR     64  51  62 S12       29.66R
LONGVIEW       MOCLDY    63  54  72 SW5       29.67R
MARSHALL       MOCLDY    65  52  63 SW5       29.69S
ATHENS         CLEAR     63  45  51 S5        29.66R
PALESTINE      PTCLDY    64  55  71 SE3       29.69R
JACKSONVILLE   PTCLDY    62  55  75 S7        29.71R
HENDERSON      MOCLDY    62  54  73 S6        29.69S
CENTER         MOCLDY    66  59  79 CALM      29.70R
NACOGDOCHES    MOCLDY    61  55  82 CALM      29.69R
LUFKIN         CLOUDY    65  56  72 W6        29.71R THUNDER
$$

SUPPLEMENTAL OBSERVATIONS (CENTRAL)

CITY           SKY/WX    TMP DP  RH WIND       PRES   REMARKS
$$

SUPPLEMENTAL OBSERVATIONS (WEST)

CITY           SKY/WX    TMP DP  RH WIND       PRES   REMARKS
$$

SUPPLEMENTAL OBSERVATIONS (EAST)

CITY           SKY/WX    TMP DP  RH WIND       PRES   REMARKS
$$

SUPPLEMENTAL OBSERVATIONS ARE A COLLECTION OF AUTOMATED INSTRUMENTS
THAT ARE MAINTAINED BY A VARIETY OF FEDERAL AND STATE AGENCIES.
CERTAIN ELEMENTS...SUCH AS HUMIDITY VALUES AND SUSTAINED WIND
SPEEDS...MAY BE APPROXIMATED.





USA.gov is the U.S. government's official web portal to all federal, state and local government web resources and services.